Regional Weather Roundup
Issued by NWS Lake Charles, LA

Home | Current Version | Previous Version | Text Only | Print | Product List | Glossary On
Versions: 1 2 3 4 5 6 7 8 9 10 11 12 13 14 15 16 17 18 19 20 21 22 23 24 25 26 27
000
ASUS44 KLCH 251110
RWRLCH
REGIONAL WEATHER ROUNDUP
NATIONAL WEATHER SERVICE LAKE CHARLES LA
600 AM CDT SAT MAR 25 2017

Note: "fair" indicates few or no clouds below 12,000 feet with no
significant weather and/or obstructions to visibility.


ACROSS SOUTHEAST TEXAS

CITY           SKY/WX    TMP DP  RH WIND       PRES   REMARKS
BEAUMONT       CLOUDY    71  68  90 S10       29.97R
BEAUMONT CITY  CLOUDY   N/A N/A N/A S9        29.97S
ORANGE         CLOUDY    70  68  93 S8        30.00R
JASPER         CLOUDY    65  63  91 S5        29.98S
$$

ACROSS CENTRAL LOUISIANA

CITY           SKY/WX    TMP DP  RH WIND       PRES   REMARKS
LEESVILLE      CLOUDY    60  58  93 S8        29.97S
FULLERTON      PTSUNNY   59  57  93 VRB6      29.96R
ALEXANDRIA INT CLOUDY    60  58  92 S6        29.93S
ESLER FIELD    RAIN      60  58  92 S17G33    29.93F
DERIDDER       CLOUDY    60  59  96 SE5       30.00R
OAKDALE        CLOUDY    59  57  94 S6        30.00R
OPELOUSAS      CLOUDY    59  58  94 MISG      30.04F
$$

ACROSS SOUTHWEST AND SOUTH CENTRAL LOUISIANA

CITY           SKY/WX    TMP DP  RH WIND       PRES   REMARKS
SULPHUR        SUNNY    N/A N/A N/A CALM      30.00S
LAKE CHARLES   CLEAR     59  59 100 SE5       29.99S
CHENNAULT INT  CLEAR     57  57 100 SE5       30.00F
CAMERON PHI    CLOUDY    70  66  88 S6        30.00F
DEQUINCY       PTSUNNY   58  57  96 SE3       29.99S
JENNINGS       FAIR      58  57  96 CALM      30.01F
LAFAYETTE      TSTM      62  59  90 NW7G22    30.06S FOG
NEW IBERIA     CLOUDY    72  67  84 SW10      30.05R THUNDER
ABBEVILLE      NOT AVBL
PATTERSON      CLOUDY    70  68  93 S10       30.04F
SALT POINT       N/A     70  68  93 MISG      30.02F
$$

SELECTED SITES ACROSS THE REGION

CITY           SKY/WX    TMP DP  RH WIND       PRES   REMARKS
HOUSTON BUSH   CLOUDY    73  68  84 W6        29.95R
HOUSTON HOBBY  CLOUDY    71  69  93 S8        29.95R
GALVESTON      CLOUDY    73  70  90 S14       29.98S
COLLEGE STAT   CLEAR     61  45  55 NW10      29.99R
CONROE         CLOUDY    68  66  93 W7        29.96R
HUNTSVILLE     CLEAR     66  55  67 NW8       29.97R
LUFKIN         PTCLDY    63  62  97 W7        29.93S FOG
SHREVEPORT     PTCLDY    64  61  90 S9        29.89R
MONROE         CLOUDY    61  58  90 S8        29.92R
NATCHEZ MS     CLOUDY    59  55  88 SE9       30.01F THUNDER
BATON ROUGE    PTCLDY    70  66  87 S10       30.02R
N.O. INTL ARPT PTCLDY    71  67  87 SE14      30.07R
SLIDELL        MOCLDY    69  66  90 S9        30.07F
$$

MARINE REPORTS

STATION/POSITION TIME  SKY/WX   TEMP    WIND        PRES    VSBY
                                AIR SEA DIR/SP/G
                 (UTC)          (F)     (DEG/KT/KT) (MB)    (MI)
BUOY 30 S HIGH I 0950            71 71  220/ 14/ 16 1014.8
WVE H/P(F/S)=  6/ 8

SEA RIM ST PARK  1100            71     200/ 12/ 15 1015.6R
PORT ARTHUR      1048               71  190/  7/ 10 1015.3R
SABINE PASS N    1048            71 74  190/ 10/ 15 1016.6R
TEXAS POINT      NOT AVBL
CALCASIEU PASS   1048            70 72  160/  8/ 10   N/A
LK CHARLES BEACH 1048            59 70              1016.1R
MARSH ISLAND     1000            72                   N/A
FRESH WATER LOCK 1048            72 73  160/ 12/ 17 1016.4R
AMERADA PASS     1048            70 62  140/  6/ 12 1016.9F
$$




USA.gov is the U.S. government's official web portal to all federal, state and local government web resources and services.